Weather History for Cedar City, UT

Change the Weather History Date:

Thursday, May 3, 2012

  Actual Average Record
Temperature  
Mean Temperature 62 °F 52 °F  
Max Temperature 74 °F 67 °F 84 °F (2004)
Min Temperature 50 °F 36 °F 23 °F (1967)
Degree Days  
Heating Degree Days 3 13  
Month to date heating degree days 5 40  
Since 1 July heating degree days 5698 5926  
Cooling Degree Days 0 0  
Month to date cooling degree days 0 0  
Year to date cooling degree days 0 0  
Growing Degree Days 12 (Base 50)    
Moisture  
Dew Point 29 °F    
Average Humidity 35    
Maximum Humidity 48    
Minimum Humidity 22    
Precipitation  
Precipitation 0.00 in 0.02 in 0.48 in (1999)
Month to date precipitation 0.00 0.08  
Year to date precipitation 3.60 4.35  
Sea Level Pressure  
Sea Level Pressure 29.78 in    
Wind  
Wind Speed 13 mph (SSW)    
Max Wind Speed 26 mph    
Max Gust Speed 35 mph    
Visibility 10 miles    
Events      
T = Trace of Precipitation, MM = Missing Value Source: NWS Daily Summary

Daily Weather History Graph

Daily Weather History Graph

Search for Another Location

Airport:

Trip Planner

Search our weather history database for the weather conditions in past years. The results will help you decide how hot, cold, wet, or windy it might be!

Date:

Astronomy

May. 03, 2012 Rise Set
Actual Time 6:33 AM MDT 8:25 PM MDT
Civil Twilight 6:05 AM MDT 8:53 PM MDT
Nautical Twilight 5:31 AM MDT 9:28 PM MDT
Astronomical Twilight 4:54 AM MDT 10:05 PM MDT
Moon 5:56 PM MDT 4:37 AM MDT
Length of Visible Light 14h 48m
Length of Day
13h 51m
Waxing Gibbous, 91% of the Moon is Illuminated
May 3
Waxing Gibbous
May 5
Full
May 12
Last Quarter
May 20
New
May 28
First Quarter

Hourly Weather History & Observations

Time (MDT) Temp. Dew Point Humidity Pressure Visibility Wind Dir Wind Speed Gust Speed Precip Events Conditions
12:53 AM 60.1 °F 28.9 °F 31% 29.72 in 10.0 mi South 15.0 mph 21.9 mph N/A   Clear
1:53 AM 55.0 °F 30.0 °F 38% 29.74 in 10.0 mi SSW 12.7 mph - N/A   Clear
2:53 AM 55.9 °F 28.9 °F 36% 29.72 in 10.0 mi SSW 10.4 mph - N/A   Clear
3:53 AM 52.0 °F 30.0 °F 43% 29.76 in 10.0 mi Calm Calm - N/A   Clear
4:53 AM 52.0 °F 30.0 °F 43% 29.76 in 10.0 mi Calm Calm - N/A   Clear
5:53 AM 51.1 °F 30.9 °F 46% 29.78 in 10.0 mi SSW 5.8 mph - N/A   Clear
6:53 AM 52.0 °F 32.0 °F 47% 29.79 in 10.0 mi Variable 3.5 mph - N/A   Clear
7:53 AM 55.0 °F 34.0 °F 45% 29.80 in 10.0 mi WSW 4.6 mph - N/A   Clear
8:53 AM 59.0 °F 36.0 °F 42% 29.79 in 10.0 mi SW 9.2 mph 18.4 mph N/A   Clear
9:53 AM 63.0 °F 35.1 °F 35% 29.80 in 10.0 mi SW 18.4 mph 26.5 mph N/A   Clear
10:53 AM 64.9 °F 33.1 °F 31% 29.80 in 10.0 mi SW 24.2 mph 29.9 mph N/A   Clear
11:53 AM 69.1 °F 30.0 °F 23% 29.77 in 10.0 mi SSW 18.4 mph 29.9 mph N/A   Clear
12:53 PM 71.6 °F 30.2 °F 22% 29.97 in 10.0 mi SSW 17.3 mph 28.8 mph N/A   Clear
1:53 PM 69.1 °F 30.0 °F 23% 29.78 in 10.0 mi SSW 20.7 mph 27.6 mph N/A   Clear
2:53 PM 72.0 °F 30.9 °F 22% 29.76 in 10.0 mi SW 19.6 mph 29.9 mph N/A   Clear
3:53 PM 71.1 °F 32.0 °F 24% 29.77 in 10.0 mi SSW 21.9 mph 33.4 mph N/A   Clear
4:53 PM 72.0 °F 30.0 °F 21% 29.74 in 10.0 mi SSW 19.6 mph 33.4 mph N/A   Clear
5:53 PM 71.1 °F 28.0 °F 20% 29.75 in 10.0 mi SW 23.0 mph 32.2 mph N/A   Clear
6:53 PM 69.1 °F 24.1 °F 18% 29.75 in 10.0 mi SSW 18.4 mph 29.9 mph N/A   Clear
7:53 PM 66.9 °F 24.1 °F 20% 29.76 in 10.0 mi South 17.3 mph 29.9 mph N/A   Clear
8:53 PM 63.0 °F 23.0 °F 22% 29.77 in 10.0 mi SSW 12.7 mph 23.0 mph N/A   Clear
9:53 PM 57.0 °F 24.1 °F 28% 29.79 in 10.0 mi SSW 10.4 mph - N/A   Clear
10:53 PM 55.9 °F 25.0 °F 30% 29.81 in 10.0 mi SW 8.1 mph - N/A   Clear
11:53 PM 55.0 °F 24.1 °F 30% 29.79 in 10.0 mi SSW 9.2 mph - N/A   Clear